Weather History for Fargo, ND

Change the Weather History Date:

Tuesday, November 20, 2012

  Actual Average Record
Temperature  
Mean Temperature 36 °F 26 °F  
Max Temperature 51 °F 34 °F 63 °F (1890)
Min Temperature 20 °F 18 °F -16 °F (1921)
Degree Days  
Heating Degree Days 29 39  
Month to date heating degree days 616 663  
Since 1 July heating degree days 1493 1539  
Cooling Degree Days 0 0  
Month to date cooling degree days 0 0  
Year to date cooling degree days 795 551  
Moisture  
Dew Point 23 °F    
Average Humidity 68    
Maximum Humidity 92    
Minimum Humidity 44    
Precipitation  
Precipitation 0.00 in 0.04 in 1.43 in (1977)
Month to date precipitation 0.39 0.72  
Year to date precipitation 13.95 21.50  
Snow  
Snow 0.00 in 0.30 in 12.00 in (1977)
Month to date snowfall 2.2 4.4  
Since 1 July snowfall 5.8 5.1  
Since 1 September snowfall 5.8 5.1  
Snow Depth 0.00 in    
Sea Level Pressure  
Sea Level Pressure 30.09 in    
Wind  
Wind Speed 9 mph (SSE)    
Max Wind Speed 20 mph    
Max Gust Speed 25 mph    
Visibility 5 miles    
Events Fog    
T = Trace of Precipitation, MM = Missing Value Source: NWS Daily Summary

Daily Weather History Graph

Daily Weather History Graph

Search for Another Location

Airport:

Trip Planner

Search our weather history database for the weather conditions in past years. The results will help you decide how hot, cold, wet, or windy it might be!

Date:

Astronomy

Nov. 20, 2012 Rise Set
Actual Time 7:38 AM CST 4:47 PM CST
Civil Twilight 7:04 AM CST 5:21 PM CST
Nautical Twilight 6:27 AM CST 5:58 PM CST
Astronomical Twilight 5:51 AM CST 6:34 PM CST
Moon 12:59 PM CST (11/20) No Moon Set
Length of Visible Light 10h 16m
Length of Day
9h 09m
First Quarter, 51% of the Moon is Illuminated
Nov 20
First Quarter
Nov 28
Full
Dec 6
Last Quarter
Dec 13
New
Dec 19
First Quarter

Hourly Weather History & Observations

Time (CST) Temp. Windchill Dew Point Humidity Pressure Visibility Wind Dir Wind Speed Gust Speed Precip Events Conditions
12:28 AM 23.0 °F - 19.4 °F 86% 30.15 in 0.5 mi Calm Calm - N/A   Unknown
12:49 AM 23.0 °F 18.4 °F 19.4 °F 86% 30.16 in 0.2 mi West 3.5 mph - N/A   Unknown
12:53 AM 23.0 °F - 19.9 °F 88% 30.19 in 0.2 mi Calm Calm - N/A   Unknown
1:40 AM 21.2 °F - 17.6 °F 86% 30.16 in 0.2 mi Calm Calm - N/A   Unknown
1:53 AM 21.2 °F - 17.6 °F 86% 30.16 in 0.2 mi Calm Calm - N/A   Unknown
2:33 AM 21.2 °F - 17.6 °F 86% 30.16 in 0.2 mi Calm Calm - N/A   Clear
2:40 AM 21.2 °F - 17.6 °F 86% 30.16 in 1.0 mi Calm Calm - N/A   Clear
2:43 AM 21.2 °F - 17.6 °F 86% 30.16 in 3.0 mi Calm Calm - N/A   Clear
2:53 AM 21.0 °F - 17.1 °F 85% 30.19 in 3.0 mi Calm Calm - N/A   Clear
3:27 AM 19.4 °F - 15.8 °F 86% 30.15 in 1.8 mi Calm Calm - N/A   Clear
3:39 AM 21.2 °F 14.9 °F 17.6 °F 86% 30.14 in 0.5 mi South 4.6 mph - N/A   Clear
3:49 AM 21.2 °F - 17.6 °F 86% 30.13 in 2.0 mi Calm Calm - N/A   Clear
3:53 AM 21.0 °F - 17.1 °F 85% 30.17 in 5.0 mi Calm Calm - N/A   Clear
4:53 AM 21.9 °F - 17.1 °F 82% 30.17 in 5.0 mi Calm Calm - N/A   Haze
5:53 AM 19.4 °F 14.3 °F 15.8 °F 86% 30.14 in 7.0 mi SE 3.5 mph - N/A   Clear
6:23 AM 21.2 °F 13.6 °F 17.6 °F 86% 30.16 in 5.0 mi South 5.8 mph - N/A   Scattered Clouds
6:32 AM 21.2 °F 14.9 °F 19.4 °F 93% 30.15 in 3.0 mi South 4.6 mph - N/A   Mostly Cloudy
6:53 AM 21.0 °F 14.6 °F 17.1 °F 85% 30.19 in 6.0 mi SE 4.6 mph - N/A   Overcast
7:21 AM 21.2 °F 16.4 °F 19.4 °F 93% 30.13 in 1.8 mi SE 3.5 mph - N/A   Overcast
7:43 AM 23.0 °F 17.0 °F 19.4 °F 86% 30.13 in 0.5 mi SE 4.6 mph - N/A Fog Light Freezing Fog
7:53 AM 23.0 °F 18.4 °F 19.9 °F 88% 30.18 in 1.2 mi SE 3.5 mph - N/A   Overcast
8:05 AM 23.0 °F 17.0 °F 19.4 °F 86% 30.14 in 2.5 mi SE 4.6 mph - N/A   Overcast
8:53 AM 26.1 °F 19.4 °F 23.0 °F 88% 30.16 in 2.5 mi SSE 5.8 mph - N/A   Mostly Cloudy
8:56 AM 26.6 °F 20.0 °F 23.0 °F 86% 30.11 in 3.0 mi SSE 5.8 mph - N/A   Scattered Clouds
9:31 AM 28.4 °F 21.2 °F 26.6 °F 93% 30.11 in 2.5 mi SSE 6.9 mph - N/A   Clear
9:42 AM 28.4 °F 20.4 °F 26.6 °F 93% 30.12 in 4.0 mi South 8.1 mph - N/A   Clear
9:53 AM 28.9 °F 23.9 °F 27.0 °F 92% 30.16 in 4.0 mi SSE 4.6 mph - N/A   Clear
10:53 AM 33.1 °F 23.9 °F 28.9 °F 85% 30.13 in 6.0 mi SSE 12.7 mph - N/A   Clear
11:53 AM 39.9 °F 32.5 °F 30.9 °F 70% 30.11 in 9.0 mi South 12.7 mph - N/A   Clear
12:53 PM 43.0 °F 36.4 °F 30.9 °F 62% 30.07 in 10.0 mi SSE 12.7 mph - N/A   Clear
1:53 PM 48.0 °F - 30.0 °F 50% 30.02 in 10.0 mi SSE 12.7 mph - N/A   Clear
2:53 PM 51.1 °F - 30.0 °F 44% 29.99 in 10.0 mi SSE 16.1 mph 21.9 mph N/A   Clear
3:53 PM 50.0 °F - 30.0 °F 46% 29.97 in 10.0 mi SSE 13.8 mph 23.0 mph N/A   Clear
4:53 PM 48.0 °F - 28.9 °F 48% 29.95 in 10.0 mi SSE 17.3 mph 24.2 mph N/A   Clear
5:53 PM 46.0 °F 39.6 °F 26.1 °F 46% 29.96 in 10.0 mi South 15.0 mph - N/A   Clear
6:53 PM 45.0 °F 37.1 °F 28.9 °F 53% 29.95 in 10.0 mi SSE 19.6 mph - N/A   Clear
7:53 PM 43.0 °F 37.2 °F 30.9 °F 62% 29.97 in 10.0 mi South 10.4 mph - N/A   Clear
8:53 PM 43.0 °F 36.8 °F 30.9 °F 62% 29.94 in 10.0 mi SSE 11.5 mph - N/A   Clear
9:53 PM 42.1 °F 34.9 °F 30.9 °F 65% 29.93 in 10.0 mi South 13.8 mph - N/A   Clear
10:53 PM 41.0 °F 34.3 °F 30.0 °F 65% 29.92 in 10.0 mi South 11.5 mph - N/A   Clear
11:53 PM 39.9 °F 33.9 °F 28.9 °F 65% 29.91 in 10.0 mi SSE 9.2 mph - N/A   Clear